Overview Statistics Trail Chart Weather Telemetry Raw packets
 

This is the latest recevied weather packets stored in our database for station/object K4WCH. If no packets are shown the sender has not sent any weather packets the latest 10 day(s).

<< 18 19 20 21 22 23 24 >>
Time Temp. Humidity Pressure Rain* Wind** Luminosity Snow
1788534385 31.67° C 70% 1016.7 hPa 0 mm - 824 W/m² -
1788534080 31.67° C 68% 1016.7 hPa 0 mm - 602 W/m² -
1788533778 31.67° C 71% 1016.6 hPa 0 mm - 695 W/m² -
1788533474 31.11° C 72% 1016.5 hPa 0 mm - 665 W/m² -
1788533169 31.11° C 74% 1016.7 hPa 0 mm - 654 W/m² -
1788532865 31.11° C 73% 1016.7 hPa 0 mm - 662 W/m² -
1788532561 31.11° C 74% 1016.6 hPa 0 mm - 629 W/m² -
1788532257 30° C 78% 1016.6 hPa 0 mm - 534 W/m² -
1788531954 30° C 78% 1016.8 hPa 0 mm - 534 W/m² -
1788531654 30° C 78% 1016.5 hPa 0 mm - 534 W/m² -
1788531349 30° C 78% 1016.3 hPa 0 mm - 534 W/m² -
1788531044 30° C 78% 1016.4 hPa 0 mm - 534 W/m² -
1788530740 30° C 78% 1016.4 hPa 0 mm - 512 W/m² -
1788530434 30° C 79% 1016.4 hPa 0 mm - 509 W/m² -
1788530133 30° C 79% 1016.2 hPa 0 mm - 486 W/m² -
1788529830 29.44° C 81% 1016.3 hPa 0 mm - 455 W/m² -
1788529525 29.44° C 82% 1016.2 hPa 0 mm - 455 W/m² -
1788529219 28.89° C 83% 1016.3 hPa 0 mm - 441 W/m² -
1788528914 28.89° C 83% 1016.2 hPa 0 mm - 426 W/m² -
1788528610 28.33° C 85% 1016.2 hPa 0 mm - 391 W/m² -
1788528310 28.33° C 85% 1016.3 hPa 0 mm - 391 W/m² -
1788528010 28.33° C 85% 1016.2 hPa 0 mm - 391 W/m² -
1788527704 28.33° C 85% 1015.8 hPa 0 mm - 391 W/m² -
1788527400 27.78° C 85% 1016.1 hPa 0 mm - 390 W/m² -
1788527099 - - - 0 mm - - -

* Rain latest hour (hover to see other rain measurements)
** Current wind speed in m/s (hover to see current wind gust speed)